[[{"header":{"parameterUnit":"m.s-1","parameterCategory":1,"la1":30.2991,"la2":30.254,"lo1":-89.0895,"lo2":-89.0444,"dy":0.0017,"dx":0.0017,"nx":28,"ny":28,"refTime":"2025-11-29T03:00:00:Z","depth":0,"parameterNumber":2,"parameterNumberName":"U-component_of_WINDS"},"data":[0,0,0,0,0,0,0,0,0,0,0,0,0,0,0,0,0,0,0,0,0,0,0,0,0,0,0,0,0,0,0,0,0,0,0,0,0,0,0,0,0,0,0,0,0,0,0,0,0,0,0,0,0,0,0,0,0,0,-2.5694,-2.5695,0,-2.5756,-2.5757,-2.5758,-2.5691,-2.5689,-2.5686,-2.5684,-2.5749,-2.5753,-2.5757,0,0,0,0,0,0,0,0,0,0,0,0,0,-2.552,-2.5523,-2.5694,-2.5695,-2.5696,-2.5756,-2.5757,-2.5758,-2.5692,-2.5688,-2.5685,-2.5682,-2.5748,-2.5753,-2.5757,0,0,0,0,0,0,0,0,0,0,0,0,0,-2.559,-2.5525,-2.5694,-2.567,-2.5668,-2.5756,-2.5757,-2.5758,-2.5692,-2.5688,-2.5685,-2.5681,-2.5746,-2.5752,-2.5758,-2.5873,0,0,-2.5777,-2.578,0,0,0,0,0,0,0,0,-2.5586,-2.5597,-2.5673,-2.5672,-2.567,-2.5712,-2.5719,-2.5797,-2.5693,-2.5683,-2.5684,-2.5679,-2.574,-2.5746,-2.5767,-2.5876,-2.5879,-2.5778,-2.5781,-2.5784,-2.5786,0,0,0,0,0,0,0,-2.5581,-2.5594,-2.5719,-2.5674,-2.5672,-2.5656,-2.5662,-2.5734,-2.5733,-2.5684,-2.5679,-2.5687,-2.5738,-2.5761,-2.5768,-2.588,-2.5777,-2.5783,-2.5787,-2.5789,-2.6088,-2.6092,0,0,0,0,0,0,-2.5579,-2.559,-2.5717,-2.5721,-2.5618,-2.5663,-2.5669,-2.5703,-2.5731,-2.5732,-2.5691,-2.5684,-2.5752,-2.576,-2.577,-2.5908,-2.5784,-2.579,-2.5793,-2.6084,-2.6089,-2.6094,0,0,0,0,0,0,-2.5576,-2.5591,-2.5714,-2.5654,-2.5669,-2.567,-2.5708,-2.5706,-2.5728,-2.5737,-2.5736,-2.5714,-2.5749,-2.5761,-2.5848,-2.5909,-2.5793,-2.5798,-2.6079,-2.6086,-2.6092,-2.6184,0,0,0,0,0,0,-2.5571,-2.559,-2.5634,-2.5656,-2.5672,-2.5792,-2.5712,-2.571,-2.5739,-2.5731,-2.5758,-2.5759,-2.5747,-2.5839,-2.5854,-2.5915,-2.5803,-2.6074,-2.6082,-2.609,-2.6175,-2.6193,-2.6207,0,0,0,0,0,-2.5565,-2.5657,-2.5636,-2.5652,-2.5727,-2.5795,-2.5805,-2.5789,-2.5744,-2.5788,-2.5793,-2.5758,-2.5899,-2.5849,-2.5865,-2.5929,-2.607,-2.608,-2.6089,-2.6168,-2.6189,-2.6207,0,0,0,0,0,0,-2.5643,-2.566,-2.5637,-2.5739,-2.5766,-2.5784,-2.5839,-2.5812,-2.5853,-2.5844,-2.5823,-2.583,-2.5923,-2.5934,-2.5877,-2.6042,-2.5977,-2.5991,-2.6032,-2.6052,-2.6067,-2.6064,-2.5808,0,0,0,0,0,-2.5672,-2.5727,-2.5738,-2.5827,-2.5842,-2.5839,-2.5868,-2.5853,-2.5881,-2.5893,-2.5904,-2.5933,-2.5984,-2.6018,-2.6065,-2.6176,-2.6182,-2.6228,-2.6244,-2.6257,-2.6269,-2.633,-2.6351,-2.6125,-2.6125,-2.6125,0,0,-2.5734,-2.5749,-2.5785,-2.5843,-2.5863,-2.592,-2.5849,-2.5912,-2.5955,-2.5902,-2.5986,-2.5995,-2.6026,-2.6126,-2.617,-2.6138,-2.6332,-2.6269,-2.6279,-2.6285,-2.6342,-2.6363,-2.6382,-2.6132,-2.613,-2.6129,0,0,-2.5874,-2.5891,-2.5968,-2.5988,-2.6019,-2.6015,-2.6034,-2.6056,-2.606,-2.6143,-2.6105,-2.6155,-2.6243,-2.6267,-2.6291,-2.644,-2.641,-2.6456,-2.654,-2.6599,-2.6617,-2.6633,-2.6688,-2.6708,-2.6467,-2.6468,-2.6468,0,-2.5947,-2.6031,-2.6011,-2.6077,-2.6105,-2.6058,-2.6137,-2.6158,-2.6202,-2.6223,-2.6185,-2.6295,-2.6312,-2.6418,-2.6454,-2.6474,-2.6495,-2.6454,-2.6616,-2.6631,-2.6646,-2.6698,-2.6719,-2.6473,-2.6473,-2.6472,-2.6472,0,-2.612,-2.6179,-2.6237,-2.6281,-2.6314,-2.6386,-2.6377,-2.6414,-2.6396,-2.6397,-2.6483,-2.6501,-2.6552,-2.6575,-2.6559,-2.6679,-2.6658,-2.6619,-2.6554,-2.6673,-2.6722,-2.6742,-2.6481,-2.6479,-2.6478,-2.6476,0,0,-2.6314,-2.6344,-2.6367,-2.6386,-2.6416,-2.6461,-2.6531,-2.658,-2.6613,-2.6644,-2.6703,-2.6778,-2.6742,-2.6769,-2.6754,-2.6806,-2.6925,-2.676,-2.6761,-2.6792,-2.7061,-2.7092,-2.7115,-2.6904,-2.6907,-2.691,-2.7059,0,-2.6457,-2.6578,-2.6561,-2.6678,-2.6733,-2.669,-2.6751,-2.6776,-2.6778,-2.6826,-2.6828,-2.6882,-2.6829,-2.6846,-2.6895,-2.69,-2.6979,-2.6889,-2.696,-2.6963,-2.6957,-2.7141,-2.7174,-2.7313,-2.7077,-2.7081,-2.7083,0,-2.6641,-2.6679,-2.6801,-2.6823,-2.6845,-2.69,-2.6944,-2.6989,-2.7017,-2.7015,-2.7045,-2.7021,-2.7091,-2.7023,-2.7121,-2.706,-2.7088,-2.7095,-2.71,-2.7108,-2.7032,-2.7156,-2.7357,-2.7379,-2.7112,-2.711,-2.7108,0,-2.6773,-2.6855,-2.6939,-2.6956,-2.6983,-2.7023,-2.7036,-2.7059,-2.709,-2.7128,-2.7148,-2.7194,-2.722,-2.7256,-2.7245,-2.7196,-2.7346,-2.7277,-2.7348,-2.7349,-2.7384,-2.7383,-2.7595,-2.7398,-2.7398,-2.7397,-2.7397,0,-2.6936,-2.7013,-2.6999,-2.7051,-2.7136,-2.7115,-2.7201,-2.7208,-2.7229,-2.7283,-2.7247,-2.7298,-2.7279,-2.7329,-2.7321,-2.7404,-2.7415,-2.7417,-2.7414,-2.7422,-2.7422,-2.7441,-2.7433,-2.7403,-2.7402,-2.7401,-2.74,0,-2.7099,-2.7092,-2.7181,-2.7199,-2.7205,-2.7267,-2.7282,-2.7331,-2.733,-2.7398,-2.7413,-2.7412,-2.7469,-2.7461,-2.7524,-2.7518,-2.7623,-2.7607,-2.7614,-2.7611,-2.7684,-2.7678,-2.7918,-2.795,-2.7731,-2.7733,-2.7735,0,-2.7205,-2.7264,-2.7287,-2.732,-2.7336,-2.7389,-2.742,-2.7401,-2.7435,-2.7471,-2.7516,-2.757,-2.7612,-2.7705,-2.771,-2.7758,-2.7745,-2.7826,-2.7752,-2.7758,-2.7749,-2.7747,-2.7753,-2.7841,-2.7844,-2.7846,-2.7847,0,-2.7395,-2.7388,-2.7434,-2.7479,-2.7517,-2.7551,-2.7582,-2.7611,-2.7596,-2.7636,-2.7693,-2.7726,-2.779,-2.7845,-2.789,-2.7903,-2.7874,-2.787,-2.789,-2.7899,-2.7902,-2.7904,-2.7656,-2.7865,-2.7864,-2.7862,-2.7861,-2.7861,-2.7534,-2.7584,-2.7609,-2.7661,-2.7682,-2.7712,-2.7759,-2.7764,-2.7811,-2.7862,-2.7848,-2.7914,-2.794,-2.7998,-2.8016,-2.8068,-2.8038,-2.8066,-2.8073,-2.8081,-2.8091,-2.7891,-2.8075,-2.8075,-2.8074,-2.8074,-2.8073,0,-2.7724,-2.7737,-2.7785,-2.783,-2.7871,-2.7837,-2.787,-2.7907,-2.7965,-2.7992,-2.8033,-2.81,-2.8152,-2.8161,-2.8211,-2.825,-2.8238,-2.8264,-2.8263,-2.8267,-2.8113,-2.8093,-2.8273,-2.8273,-2.8273,-2.8273,-2.8273,-2.8273,-2.7827,-2.7911,-2.7907,-2.8001,-2.8014,-2.8078,-2.8099,-2.8127,-2.8148,-2.8224,-2.8267,-2.8271,-2.8291,-2.8342,-2.8389,-2.839,-2.8411,-2.8443,-2.8439,-2.8297,-2.8277,-2.8258,-2.8239,-2.8447,-2.8447,-2.8588,-2.859,-2.8591]},{"header":{"parameterUnit":"m.s-1","parameterCategory":1,"la1":30.2991,"la2":30.254,"lo1":-89.0895,"lo2":-89.0444,"dy":0.0017,"dx":0.0017,"nx":28,"ny":28,"refTime":"2025-11-29T03:00:00:Z","depth":0,"parameterNumber":3,"parameterNumberName":"V-component_of_WINDS"},"data":[0,0,0,0,0,0,0,0,0,0,0,0,0,0,0,0,0,0,0,0,0,0,0,0,0,0,0,0,0,0,0,0,0,0,0,0,0,0,0,0,0,0,0,0,0,0,0,0,0,0,0,0,0,0,0,0,0,0,-6.121,-6.121,0,-6.1206,-6.1206,-6.1206,-6.1146,-6.1145,-6.1143,-6.1142,-6.1139,-6.114,-6.1141,0,0,0,0,0,0,0,0,0,0,0,0,0,-6.1164,-6.1165,-6.121,-6.121,-6.121,-6.1206,-6.1206,-6.1206,-6.1146,-6.1144,-6.1143,-6.1141,-6.1138,-6.114,-6.1142,0,0,0,0,0,0,0,0,0,0,0,0,0,-6.1175,-6.1165,-6.121,-6.1179,-6.1176,-6.1206,-6.1206,-6.1206,-6.1147,-6.1144,-6.1142,-6.114,-6.1138,-6.114,-6.1142,-6.1201,0,0,-6.1148,-6.1149,0,0,0,0,0,0,0,0,-6.1174,-6.1176,-6.1184,-6.1181,-6.1178,-6.1174,-6.1189,-6.1204,-6.1147,-6.1158,-6.1141,-6.1139,-6.1153,-6.1153,-6.1158,-6.1201,-6.1201,-6.1148,-6.1149,-6.115,-6.1151,0,0,0,0,0,0,0,-6.1173,-6.1176,-6.1208,-6.1184,-6.1181,-6.1166,-6.1165,-6.1192,-6.1168,-6.1157,-6.1153,-6.1153,-6.1151,-6.1156,-6.1157,-6.12,-6.1148,-6.115,-6.1151,-6.1152,-6.129,-6.1293,0,0,0,0,0,0,-6.1177,-6.1176,-6.1208,-6.1208,-6.117,-6.1168,-6.1167,-6.1178,-6.1168,-6.1164,-6.1155,-6.115,-6.1153,-6.1155,-6.1157,-6.1224,-6.115,-6.1152,-6.1153,-6.1288,-6.1291,-6.1294,0,0,0,0,0,0,-6.1176,-6.118,-6.1209,-6.1191,-6.1193,-6.1172,-6.1184,-6.1179,-6.1184,-6.1166,-6.1162,-6.1165,-6.1152,-6.1154,-6.119,-6.1223,-6.1153,-6.1155,-6.1285,-6.1289,-6.1292,-6.136,0,0,0,0,0,0,-6.1175,-6.118,-6.1203,-6.1192,-6.1195,-6.1242,-6.1186,-6.1181,-6.1188,-6.1182,-6.1174,-6.1171,-6.115,-6.1187,-6.1192,-6.1225,-6.1157,-6.1282,-6.1287,-6.1291,-6.1354,-6.1365,-6.1374,0,0,0,0,0,-6.1174,-6.1222,-6.1204,-6.1208,-6.1222,-6.1244,-6.1245,-6.122,-6.1191,-6.1213,-6.1201,-6.1171,-6.1219,-6.1191,-6.1196,-6.123,-6.128,-6.1285,-6.1291,-6.135,-6.1363,-6.1374,0,0,0,0,0,0,-6.1238,-6.122,-6.12,-6.1246,-6.1247,-6.1234,-6.1261,-6.1235,-6.1245,-6.1238,-6.1207,-6.1206,-6.1247,-6.1242,-6.1212,-6.1286,-6.1244,-6.1251,-6.1287,-6.13,-6.1309,-6.1309,-6.1158,0,0,0,0,0,-6.1257,-6.1276,-6.126,-6.1303,-6.1304,-6.1283,-6.1291,-6.1272,-6.1271,-6.1272,-6.1263,-6.1263,-6.1278,-6.1289,-6.1302,-6.1354,-6.1351,-6.1379,-6.1389,-6.1398,-6.1403,-6.1429,-6.1441,-6.1312,-6.1312,-6.1312,0,0,-6.1298,-6.129,-6.1305,-6.1315,-6.1314,-6.1334,-6.1283,-6.1307,-6.1322,-6.1275,-6.1308,-6.1302,-6.1301,-6.1345,-6.1363,-6.1342,-6.1439,-6.1405,-6.1412,-6.1413,-6.1436,-6.1448,-6.1459,-6.1315,-6.1315,-6.1314,0,0,-6.1381,-6.1379,-6.1413,-6.1412,-6.141,-6.1395,-6.1404,-6.1394,-6.1388,-6.142,-6.1385,-6.1403,-6.143,-6.143,-6.1434,-6.1517,-6.149,-6.1523,-6.1575,-6.16,-6.161,-6.1619,-6.1648,-6.1658,-6.1529,-6.1529,-6.1529,0,-6.1432,-6.1461,-6.1434,-6.146,-6.1465,-6.1424,-6.1458,-6.1459,-6.1461,-6.1466,-6.1442,-6.1474,-6.1471,-6.1513,-6.1534,-6.1539,-6.1546,-6.1523,-6.1611,-6.162,-6.1627,-6.1654,-6.1665,-6.1533,-6.1532,-6.1532,-6.1532,0,-6.1523,-6.1544,-6.1572,-6.1574,-6.1583,-6.1613,-6.159,-6.1603,-6.1583,-6.1571,-6.1604,-6.1598,-6.1609,-6.1618,-6.1599,-6.1658,-6.1644,-6.1617,-6.1573,-6.1644,-6.1669,-6.1679,-6.1539,-6.1537,-6.1536,-6.1535,0,0,-6.1646,-6.1633,-6.1644,-6.1644,-6.1638,-6.1654,-6.1682,-6.1692,-6.1702,-6.1706,-6.1728,-6.1752,-6.1726,-6.173,-6.1711,-6.1733,-6.1798,-6.1702,-6.1702,-6.1719,-6.1861,-6.1881,-6.1894,-6.1781,-6.1783,-6.1784,-6.1861,0,-6.1726,-6.1772,-6.1748,-6.1798,-6.1816,-6.1777,-6.1802,-6.1801,-6.1791,-6.1805,-6.1793,-6.181,-6.1775,-6.1777,-6.1798,-6.1786,-6.1826,-6.1781,-6.18,-6.1801,-6.18,-6.1907,-6.1928,-6.2,-6.187,-6.1872,-6.1873,0,-6.1825,-6.1831,-6.1883,-6.1872,-6.1879,-6.1902,-6.1908,-6.1922,-6.1921,-6.1911,-6.1916,-6.1892,-6.1918,-6.1877,-6.1913,-6.1882,-6.1889,-6.1885,-6.1887,-6.1887,-6.184,-6.1907,-6.2023,-6.2034,-6.1888,-6.1887,-6.1886,0,-6.1908,-6.193,-6.1962,-6.1964,-6.1954,-6.197,-6.1967,-6.1963,-6.197,-6.1976,-6.198,-6.199,-6.1995,-6.2003,-6.1981,-6.1954,-6.202,-6.1977,-6.2012,-6.2013,-6.2027,-6.2026,-6.2144,-6.2034,-6.2034,-6.2034,-6.2034,0,-6.1998,-6.2031,-6.1999,-6.202,-6.2055,-6.2027,-6.2063,-6.2055,-6.2052,-6.207,-6.2037,-6.2055,-6.2026,-6.2041,-6.2025,-6.2056,-6.2059,-6.2052,-6.2047,-6.2054,-6.2055,-6.2057,-6.2051,-6.2037,-6.2036,-6.2036,-6.2035,0,-6.2096,-6.2076,-6.211,-6.2097,-6.2094,-6.2121,-6.211,-6.2128,-6.2115,-6.2138,-6.2142,-6.2123,-6.2138,-6.2118,-6.2132,-6.2121,-6.2163,-6.2152,-6.2164,-6.216,-6.2195,-6.2192,-6.2317,-6.2332,-6.2215,-6.2216,-6.2217,0,-6.2154,-6.2178,-6.2168,-6.2177,-6.2175,-6.2191,-6.2198,-6.2172,-6.218,-6.218,-6.2198,-6.2211,-6.2219,-6.2246,-6.2233,-6.2244,-6.2231,-6.2274,-6.2232,-6.2238,-6.2229,-6.2228,-6.2229,-6.2282,-6.2284,-6.2285,-6.2286,0,-6.2259,-6.2248,-6.2259,-6.2266,-6.2275,-6.228,-6.2283,-6.2292,-6.2265,-6.2277,-6.2292,-6.2298,-6.2312,-6.2325,-6.2332,-6.2328,-6.2302,-6.2299,-6.2308,-6.2314,-6.2319,-6.2315,-6.2185,-6.2296,-6.2295,-6.2294,-6.2294,-6.2293,-6.2338,-6.2356,-6.2352,-6.2365,-6.2364,-6.2367,-6.2382,-6.2371,-6.2383,-6.2392,-6.2376,-6.2395,-6.2393,-6.2399,-6.2398,-6.2413,-6.2394,-6.2407,-6.241,-6.2413,-6.2417,-6.2319,-6.2414,-6.2414,-6.2414,-6.2413,-6.2413,0,-6.2439,-6.2434,-6.2446,-6.245,-6.246,-6.2435,-6.2437,-6.2447,-6.2463,-6.2463,-6.2472,-6.2489,-6.2501,-6.2489,-6.2499,-6.2513,-6.2501,-6.2516,-6.2514,-6.2513,-6.2434,-6.2425,-6.2525,-6.2525,-6.2525,-6.2525,-6.2525,-6.2525,-6.2493,-6.2523,-6.2511,-6.2541,-6.2535,-6.2553,-6.2556,-6.2558,-6.2557,-6.2577,-6.2587,-6.2579,-6.2574,-6.2583,-6.2593,-6.2589,-6.2593,-6.2612,-6.2604,-6.253,-6.2519,-6.2509,-6.25,-6.2614,-6.2614,-6.2682,-6.2682,-6.2683]}]]